Weather History for KUIN - January, 2013

Change the Weather History Date:

Thursday, January 31, 2013

  Actual Average Record
Temperature  
Mean Temperature 16 °F 27 °F  
Max Temperature 25 °F 35 °F 72 °F (1989)
Min Temperature 6 °F 19 °F -14 °F (1996)
Degree Days  
Heating Degree Days 49 38  
Month to date heating degree days 1103 1198  
Since 1 July heating degree days 3151 3386  
Cooling Degree Days 0 0  
Month to date cooling degree days 0 0  
Year to date cooling degree days 0 0  
Moisture  
Dew Point 6 °F    
Average Humidity 65    
Maximum Humidity 73    
Minimum Humidity 56    
Precipitation  
Precipitation T in 0.05 in 0.64 in (1915)
Month to date precipitation 2.93 1.52  
Year to date precipitation 2.93 1.52  
Sea Level Pressure  
Sea Level Pressure 30.12 in    
Wind  
Wind Speed 18 mph (WNW)    
Max Wind Speed 29 mph    
Max Gust Speed 37 mph    
Visibility 9 miles    
Events Snow    
T = Trace of Precipitation, MM = Missing Value Source: NWS Daily Summary

Daily Weather History Graph

Daily Weather History Graph

Search for Another Location

Airport or City:

Trip Planner

Search our weather history database for the weather conditions in past years. The results will help you decide how hot, cold, wet, or windy it might be!

Date:

Astronomy

Jan. 31, 2013 Rise Set
Actual Time 7:13 AM CST 5:23 PM CST
Civil Twilight 6:45 AM CST 5:51 PM CST
Nautical Twilight 6:12 AM CST 6:24 PM CST
Astronomical Twilight 5:40 AM CST 6:56 PM CST
Moon 10:25 PM CST (1/31) 9:13 AM CST (1/31)
Length of Visible Light 11h 06m
Length of Day
10h 09m
Waning Gibbous, 79% of the Moon is Illuminated
Jan 31
Waning Gibbous
Feb 3
Last Quarter
Feb 10
New
Feb 17
First Quarter
Feb 25
Full

Hourly Weather History & Observations

Time (CST) Temp. Windchill Dew Point Humidity Pressure Visibility Wind Dir Wind Speed Gust Speed Precip Events Conditions
12:54 AM 24.1 °F 14.4 °F 12.9 °F 62% 29.90 in 10.0 mi West 9.2 mph 18.4 mph N/A   Overcast
1:54 AM 24.1 °F 10.6 °F 14.0 °F 65% 29.91 in 10.0 mi West 17.3 mph - N/A   Overcast
2:54 AM 24.1 °F 12.0 °F 12.9 °F 62% 29.91 in 10.0 mi West 13.8 mph - N/A   Overcast
3:54 AM 24.1 °F 13.7 °F 16.0 °F 71% 29.90 in 10.0 mi West 10.4 mph 21.9 mph 0.00 in   Overcast
4:08 AM 24.8 °F 14.0 °F 15.8 °F 69% 29.87 in 10.0 mi West 11.5 mph 21.9 mph N/A   Overcast
4:54 AM 24.1 °F 11.5 °F 15.1 °F 69% 29.91 in 10.0 mi WNW 15.0 mph 27.6 mph N/A   Overcast
5:20 AM 24.8 °F 11.9 °F 12.2 °F 59% 29.89 in 10.0 mi West 16.1 mph 25.3 mph N/A   Overcast
5:54 AM 23.0 °F 10.1 °F 12.9 °F 65% 29.93 in 10.0 mi West 15.0 mph 23.0 mph N/A   Overcast
6:19 AM 23.0 °F 10.1 °F 12.2 °F 63% 29.90 in 10.0 mi WNW 15.0 mph 26.5 mph N/A   Overcast
6:51 AM 19.4 °F 4.1 °F 12.2 °F 74% 29.92 in 10.0 mi WNW 18.4 mph - N/A   Scattered Clouds
6:54 AM 19.9 °F 4.8 °F 12.9 °F 74% 29.95 in 10.0 mi WNW 18.4 mph - N/A   Scattered Clouds
7:54 AM 19.9 °F 4.8 °F 10.9 °F 68% 29.98 in 10.0 mi WNW 18.4 mph - N/A   Overcast
8:29 AM 19.4 °F 5.0 °F 12.2 °F 74% 29.96 in 10.0 mi WNW 16.1 mph - N/A   Overcast
8:54 AM 19.0 °F 4.5 °F 12.0 °F 74% 30.00 in 10.0 mi WNW 16.1 mph - N/A   Overcast
9:54 AM 19.9 °F 5.7 °F 10.9 °F 68% 30.04 in 10.0 mi NW 16.1 mph - 0.00 in   Overcast
10:54 AM 19.9 °F 6.2 °F 12.0 °F 71% 30.06 in 10.0 mi West 15.0 mph - N/A   Overcast
11:11 AM 19.4 °F 3.6 °F 6.8 °F 58% 30.03 in 10.0 mi WNW 19.6 mph 26.5 mph N/A   Mostly Cloudy
11:54 AM 19.0 °F 4.0 °F 7.0 °F 59% 30.07 in 10.0 mi NW 17.3 mph 26.5 mph N/A   Mostly Cloudy
12:54 PM 19.0 °F 3.6 °F 6.1 °F 57% 30.08 in 10.0 mi NW 18.4 mph 25.3 mph N/A   Overcast
2:54 PM 15.1 °F -3.7 °F 3.9 °F 61% 30.15 in 10.0 mi NW 24.2 mph 28.8 mph N/A   Overcast
3:52 PM 14.0 °F -3.0 °F 3.2 °F 62% 30.14 in 10.0 mi NW 18.4 mph - N/A   Overcast
3:54 PM 15.1 °F -2.5 °F 3.9 °F 61% 30.18 in 10.0 mi NW 20.7 mph - N/A   Overcast
4:03 PM 14.0 °F -3.9 °F 3.2 °F 62% 30.15 in 10.0 mi WNW 20.7 mph 27.6 mph N/A   Mostly Cloudy
4:20 PM 15.8 °F -1.5 °F 3.2 °F 58% 30.15 in 10.0 mi West 20.7 mph 27.6 mph N/A   Scattered Clouds
4:54 PM 12.9 °F -4.9 °F 3.0 °F 65% 30.20 in 10.0 mi NW 19.6 mph - N/A   Mostly Cloudy
5:43 PM 12.2 °F -6.7 °F 3.2 °F 67% 30.19 in 2.5 mi NW 21.9 mph 29.9 mph 0.00 in Snow Light Snow
5:52 PM 12.2 °F -7.5 °F 5.0 °F 73% 30.20 in 1.5 mi NW 24.2 mph 29.9 mph 0.00 in Snow Light Snow
5:54 PM 12.0 °F -6.5 °F 3.9 °F 70% 30.24 in 1.8 mi NW 20.7 mph 32.2 mph 0.00 in Snow Light Snow
5:57 PM 12.2 °F -8.2 °F 3.2 °F 67% 30.20 in 3.0 mi NW 26.5 mph 32.2 mph 0.00 in Snow Light Snow
6:13 PM 10.4 °F -10.3 °F 1.4 °F 67% 30.22 in 10.0 mi WNW 25.3 mph 32.2 mph 0.00 in   Mostly Cloudy
6:54 PM 10.0 °F -10.0 °F -0.9 °F 61% 30.29 in 10.0 mi WNW 23.0 mph 32.2 mph 0.00 in   Mostly Cloudy
7:54 PM 9.0 °F -11.8 °F -2.0 °F 61% 30.32 in 10.0 mi WNW 24.2 mph 31.1 mph N/A   Overcast
8:23 PM 8.6 °F -10.0 °F -2.2 °F 62% 30.29 in 10.0 mi WNW 18.4 mph 31.1 mph N/A   Mostly Cloudy
8:54 PM 8.1 °F -9.6 °F -2.0 °F 64% 30.35 in 10.0 mi WNW 16.1 mph 26.5 mph N/A   Mostly Cloudy
9:54 PM 7.0 °F -12.6 °F -2.9 °F 64% 30.38 in 10.0 mi WNW 19.6 mph 27.6 mph N/A   Mostly Cloudy
10:22 PM 6.8 °F -10.0 °F -2.2 °F 67% 30.34 in 10.0 mi WNW 13.8 mph 24.2 mph N/A   Scattered Clouds
10:43 PM 6.8 °F -11.3 °F -2.2 °F 67% 30.35 in 10.0 mi WNW 16.1 mph - N/A   Mostly Cloudy
10:54 PM 7.0 °F -12.6 °F -4.0 °F 61% 30.39 in 10.0 mi WNW 19.6 mph 26.5 mph N/A   Mostly Cloudy
11:10 PM 6.8 °F -12.9 °F -4.0 °F 61% 30.36 in 10.0 mi WNW 19.6 mph 24.2 mph N/A   Partly Cloudy
11:54 PM 6.8 °F -10.7 °F -4.0 °F 61% 30.38 in 10.0 mi WNW 15.0 mph 26.5 mph N/A   Clear